Location: Newark
(12.4436°N, 0.6167°W)
Time: 09:53:46
(UTC+00:00)

Vanguard 2 - Pass Details

Date: 12 December 2019
Orbit: 553 x 2938 km, 32.9° (Epoch: 17 January)

Event Time Altitude Azimuth Distance (km) Brightness Sun altitude
Rises 04:15:21 0° 297° (WNW) 6,524 - -27.8°
Reaches altitude 10° 04:20:11 10° 305° (NW) 5,667 - -26.7°
Exits shadow 04:26:41 24° 322° (NW) 4,654 11.0 -25.2°
Maximum altitude 04:36:11 38° 8° (N) 3,826 10.9 -23.0°
Drops below altitude 10° 04:50:05 10° 72° (ENE) 4,978 12.4 -19.8°
Sets 04:53:58 0° 80° (E) 5,691 13.0 -18.9°
